Powrót do katalogu

STARLINK-31708

AktywnyŁącznośćVLEO
NORAD 59439·PAYLOAD·🇺🇸 United States

Wystrzelony Apr 7, 2024 z Vandenberg Space Force Base

Loading…

Następne Przeloty (najbliższe 24 godziny)

TLE

ŚwieżeSource: CelesTrak SupGP

Epoka: Sep 14, 2026, 21:33 UTC

1 59439C 24065U   26257.89840278 -.00005092  00000+0 -15053-3 0  2576
2 59439  53.1574 120.0241 0001207  84.5933  55.2536 15.34374852    18

Śledź STARLINK-31708 w czasie rzeczywistym z AllMySat

Download on the App Store